Castaic, CA (91310)

7:29 AM PDT on March 26, 2017 (GMT -0700)
Castaic Lake, Lower Lagoon | | Change Station
Active Advisory: High Wind Watch

Elev 1500 ft 34.50 °N, 118.60 °W | Updated 27 seconds ago

Partly Cloudy
Partly Cloudy
50.4 °F
Feels Like 50.4 °F
N
2.9
Wind Variable Wind from SE
Gusts 3.8 mph

Today
High -- | Low -- °F
--% Chance of Precip.
Yesterday
High -- | Low -- °F
Precip. -- in
Pressure 30.01 in
Visibility 3.0 miles
Clouds Overcast 300 ft
Dew Point 42 °F
Humidity 72%
Rainfall 0.00 in
Snow Depth Not available.
6:49 AM 7:11 PM
Waning Crescent, 3% visible
METAR KVNY 261351Z 00000KT 3SM BR OVC003 11/11 A3002 RMK AO2 SLP162 T01110111
Pressure 30.01 in
Visibility 3.0 miles
Clouds Overcast 300 ft
Dew Point 42 °F
Humidity 72%
Rainfall 0.00 in
Snow Depth Not available.
6:49 AM 7:11 PM
Waning Crescent, 3% visible
METAR KVNY 261351Z 00000KT 3SM BR OVC003 11/11 A3002 RMK AO2 SLP162 T01110111

Get Your Daily Forecast Email!

Thanks for signing up!

Be on the lookout for a verification email in your inbox.

You'll start receiving severe weather alerts in your inbox..

×

10-Day Weather Forecast

Almanac

Astronomy

Mar. 26, 2017 Rise Set
Actual Time
Civil Twilight
Nautical Twilight
Astronomical Twilight
Moon
Length of Visible Light
Length of Day
Tomorrow will be .
, % of the Moon is Illuminated

Today's Extremes

State Highs State Lows

Community

WunderPhotos

Upload Photos

1,962,540 photos uploaded!

WunderBlog® & News

Nearby

Air Quality

  Air Quality AQ Index Pollutant
Not available.

Snow Depth

Station Depth Elevation

Earthquake Activity

City Distance Mag. Time & Date
Minimum magnitude displayed is 2.5.

Earthquake Activity

City Distance Mag. Time & Date
Minimum magnitude displayed is 2.5.

Coastal Water Temperatures

Place Temperature

Stations

Nearby Weather Stations

Station Location Temp. Windchill Dew Point Humidity Wind Precip. Elev Updated Type
                   

Watches & Warnings

High Wind Watch
Issued: 3:07 AM PDT Mar. 26, 2017 – National Weather Service

... High wind watch in effect from Monday evening through Tuesday
morning...

The National Weather Service in Los Angeles/Oxnard has issued a
high wind watch, which is in effect from Monday evening through
Tuesday morning.

* Winds and timing... north winds with the potential of 60 mph
gusts will develop early Monday evening and persist into Tuesday
morning.

* Impacts... winds this strong could damage property.

Precautionary/preparedness actions...

A high wind watch means that conditions are favorable for
potentially damaging winds of 58 mph or greater. Be prepared to
secure all loose outdoor furniture in advance of the onset of
strong winds. Monitor the latest forecasts on NOAA Weather Radio
or your favorite media source.